GW3991 Weather Reports


time (UTC)temp
F
wind
direction
speed
knots
gust
knots
rain 1hr
in
rain 24hr
in
rain mn
in
humidity
%
barometer
mb
20260906190838 85 269 0.0 4.3 0.00 0.02 0.02 77 1015.3
20260906190338 86 283 2.6 5.2 0.00 0.02 0.02 78 1015.2
20260906185833 88 150 0.0 1.7 0.00 0.02 0.02 73 1015.1
20260906185332 87 132 0.0 1.7 0.00 0.02 0.02 75 1015.1
20260906184826 87 179 1.7 3.5 0.00 0.02 0.02 74 1015.2
20260906184321 86 198 1.7 5.2 0.00 0.02 0.02 75 1015.3
20260906183817 86 209 2.6 7.0 0.00 0.02 0.02 76 1015.3
20260906183313 86 152 1.7 5.2 0.00 0.02 0.02 74 1015.5
20260906182813 86 203 2.6 6.1 0.00 0.02 0.02 76 1015.4
20260906182306 86 199 1.7 3.5 0.00 0.02 0.02 74 1015.2
20260906181758 86 212 4.3 5.2 0.00 0.02 0.02 74 1015.6
20260906181255 87 197 4.3 5.2 0.00 0.02 0.02 71 1015.5
20260906180754 87 154 1.7 4.3 0.00 0.02 0.02 72 1015.4
20260906180249 87 148 4.3 7.8 0.00 0.02 0.02 72 1015.5
20260906175746 86 194 1.7 4.3 0.00 0.02 0.02 74 1015.4
20260906175243 86 210 3.5 6.1 0.00 0.02 0.02 72 1015.5
20260906174741 85 217 4.3 6.1 0.00 0.02 0.02 74 1015.6
20260906174240 84 201 3.5 6.1 0.00 0.02 0.02 78 1015.9
20260906173736 85 151 6.1 7.8 0.00 0.02 0.02 75 1015.7
20260906173232 86 189 4.3 7.8 0.00 0.02 0.02 74 1015.7
20260906172730 85 174 3.5 7.0 0.00 0.02 0.02 76 1015.7
20260906172226 85 175 2.6 5.2 0.00 0.02 0.02 76 1015.6
20260906171726 85 150 5.2 11.3 0.00 0.02 0.02 77 1015.8
20260906171222 85 169 3.5 9.6 0.00 0.02 0.02 79 1016.1
20260906170718 85 150 7.0 8.7 0.00 0.02 0.02 77 1016.1
20260906170213 86 139 2.6 4.3 0.00 0.02 0.02 76 1016.3
20260906165709 85 172 2.6 5.2 0.00 0.02 0.02 78 1016.3
20260906165204 85 166 3.5 5.2 0.00 0.02 0.02 78 1016.4
20260906164703 85 202 3.5 4.3 0.00 0.02 0.02 79 1016.4
20260906164158 84 18 0.0 2.6 0.00 0.02 0.02 81 1016.4
20260906163654 83 102 0.9 2.6 0.00 0.02 0.02 82 1016.4
20260906163150 83 89 0.9 2.6 0.00 0.02 0.02 81 1016.5
20260906162647 82 142 0.9 2.6 0.00 0.02 0.02 84 1016.5
20260906162146 81 145 0.0 1.7 0.00 0.02 0.02 87 1016.4
20260906161641 80 137 1.7 1.7 0.00 0.02 0.02 87 1016.4
20260906161140 80 129 0.0 1.7 0.00 0.02 0.02 87 1016.4
20260906160639 80 103 1.7 2.6 0.00 0.02 0.02 88 1016.4
20260906160133 80 44 0.0 2.6 0.00 0.02 0.02 86 1016.6
20260906155630 80 146 2.6 2.6 0.00 0.02 0.02 85 1016.7
20260906155127 80 139 2.6 2.6 0.00 0.02 0.02 88 1016.7
20260906154621 79 202 0.9 1.7 0.00 0.02 0.02 90 1016.6
20260906154121 79 152 1.7 2.6 0.00 0.02 0.02 91 1016.7
20260906153620 79 92 1.7 1.7 0.00 0.02 0.02 91 1016.6
20260906153114 78 330 0.9 1.7 0.02 0.02 0.02 92 1016.7
20260906152610 78 106 1.7 4.3 0.05 0.02 0.02 90 1016.8
20260906152103 79 277 0.9 2.6 0.02 0.00 0.00 88 1016.8
20260906151558 79 226 0.9 1.7 0.00 0.00 0.00 87 1016.8
20260906151054 79 243 0.0 2.6 0.00 0.00 0.00 88 1016.8
20260906150549 79 313 1.7 1.7 0.00 0.00 0.00 87 1016.8
20260906150044 79 142 0.0 0.0 0.00 0.00 0.00 87 1017.0
20260906145543 79 53 1.7 2.6 0.00 0.00 0.00 87 1016.8
20260906145038 79 331 1.7 2.6 0.00 0.00 0.00 87 1017.0
20260906144532 79 234 3.5 5.2 0.00 0.00 0.00 87 1016.8
20260906144027 79 229 3.5 6.1 0.00 0.00 0.00 86 1016.9
20260906143523 80 206 6.1 9.6 0.00 0.00 0.00 87 1016.8
20260906143019 80 150 4.3 7.8 0.00 0.00 0.00 86 1016.3
20260906142513 80 155 2.6 6.1 0.00 0.00 0.00 86 1015.9
20260906142009 80 158 7.0 8.7 0.00 0.00 0.00 86 1016.1
20260906141508 79 142 4.3 6.1 0.00 0.00 0.00 86 1016.0
20260906141003 79 143 3.5 5.2 0.00 0.00 0.00 86 1016.2
20260906140457 79 122 1.7 3.5 0.00 0.00 0.00 87 1016.3
20260906135955 79 126 2.6 7.8 0.00 0.00 0.00 87 1016.1
20260906135454 79 145 2.6 4.3 0.00 0.00 0.00 87 1016.1
20260906134949 78 151 0.9 6.1 0.00 0.00 0.00 88 1016.0
20260906134444 78 135 2.6 3.5 0.00 0.00 0.00 89 1016.1
20260906133939 78 140 1.7 3.5 0.00 0.00 0.00 88 1016.0
20260906133435 78 119 0.0 3.5 0.00 0.00 0.00 89 1016.0
20260906132930 78 121 0.0 3.5 0.00 0.00 0.00 89 1016.1
20260906132425 78 133 2.6 3.5 0.00 0.00 0.00 89 1016.1
20260906131920 78 158 0.9 3.5 0.00 0.00 0.00 89 1015.9
20260906131416 78 136 0.0 3.5 0.00 0.00 0.00 89 1016.1
20260906130911 77 154 2.6 2.6 0.00 0.00 0.00 89 1016.1
20260906130410 77 139 2.6 5.2 0.00 0.00 0.00 90 1016.0
20260906125905 77 127 0.9 2.6 0.00 0.00 0.00 90 1015.8
20260906125402 77 129 0.9 3.5 0.00 0.00 0.00 90 1015.8
20260906124857 76 98 0.0 3.5 0.00 0.00 0.00 90 1015.8
20260906124353 76 124 0.9 3.5 0.00 0.00 0.00 90 1015.7
20260906123852 76 124 2.6 4.3 0.00 0.00 0.00 90 1015.8
20260906123347 76 115 0.9 1.7 0.00 0.00 0.00 91 1015.5
20260906122846 76 135 0.9 3.5 0.00 0.00 0.00 91 1015.5
20260906122341 76 152 2.6 3.5 0.00 0.00 0.00 91 1015.5
20260906121838 76 134 3.5 4.3 0.00 0.00 0.00 91 1015.5
20260906121334 76 137 2.6 2.6 0.00 0.00 0.00 91 1015.4
20260906120830 76 168 0.0 2.6 0.00 0.00 0.00 91 1015.3
20260906120326 76 156 3.5 4.3 0.00 0.00 0.00 91 1015.2
20260906115822 76 81 0.0 3.5 0.00 0.00 0.00 91 1015.4
20260906115317 76 93 0.0 2.6 0.00 0.00 0.00 91 1015.1
20260906114816 76 124 0.0 2.6 0.00 0.00 0.00 90 1015.4
20260906114311 76 111 1.7 2.6 0.00 0.00 0.00 90 1015.1
20260906113806 76 123 0.0 2.6 0.00 0.00 0.00 90 1015.0
20260906113305 76 121 1.7 2.6 0.00 0.00 0.00 91 1015.1
20260906112800 76 151 2.6 4.3 0.00 0.00 0.00 91 1015.1
20260906112251 76 132 0.9 3.5 0.00 0.00 0.00 91 1015.2
20260906111751 76 139 0.9 2.6 0.00 0.00 0.00 91 1015.0
20260906111250 76 126 0.0 1.7 0.00 0.00 0.00 91 1015.1
20260906110745 76 87 0.9 1.7 0.00 0.00 0.00 91 1015.1
20260906110241 76 92 0.0 1.7 0.00 0.00 0.00 91 1014.9
20260906105740 76 130 0.0 0.9 0.00 0.00 0.00 91 1015.0
20260906105236 76 50 0.0 0.0 0.00 0.00 0.00 91 1015.0
20260906104731 77 86 0.9 1.7 0.00 0.00 0.00 90 1015.2
20260906104230 77 88 1.7 1.7 0.00 0.00 0.00 90 1015.0
20260906103728 77 129 0.0 0.9 0.00 0.00 0.00 90 1015.0
20260906103222 77 89 0.0 0.9 0.00 0.00 0.00 90 1014.9
20260906102718 77 127 0.9 1.7 0.00 0.00 0.00 89 1015.2
20260906102217 77 115 0.0 1.7 0.00 0.00 0.00 89 1015.2
20260906101712 77 149 0.9 1.7 0.00 0.00 0.00 89 1015.0
20260906101207 77 137 0.0 1.7 0.00 0.00 0.00 89 1014.9
20260906100702 77 130 0.0 0.9 0.00 0.00 0.00 89 1015.0
20260906100157 77 357 1.7 1.7 0.00 0.00 0.00 89 1014.9
20260906095652 77 98 0.9 0.9 0.00 0.00 0.00 89 1014.9
20260906095147 77 123 0.9 1.7 0.00 0.00 0.00 89 1014.7
20260906094646 77 125 0.0 1.7 0.00 0.00 0.00 89 1014.6
20260906094141 77 135 2.6 2.6 0.00 0.00 0.00 89 1014.9
20260906093637 78 118 0.9 0.9 0.00 0.00 0.00 89 1014.8
20260906093132 78 121 2.6 2.6 0.00 0.00 0.00 88 1015.0
20260906092627 78 120 1.7 1.7 0.00 0.00 0.00 88 1014.9
20260906092122 78 134 2.6 4.3 0.00 0.00 0.00 88 1014.8
20260906091618 78 136 1.7 1.7 0.00 0.00 0.00 88 1014.8
20260906091114 78 133 2.6 3.5 0.00 0.00 0.00 88 1014.9
20260906090614 78 129 1.7 2.6 0.00 0.00 0.00 88 1014.7
20260906090109 78 141 2.6 2.6 0.00 0.00 0.00 88 1014.7
20260906085608 78 155 0.0 2.6 0.00 0.00 0.00 88 1014.8
20260906085103 78 115 1.7 3.5 0.00 0.00 0.00 87 1014.8
20260906084557 78 126 0.9 1.7 0.00 0.00 0.00 88 1014.8
20260906084056 78 159 0.9 3.5 0.00 0.00 0.00 87 1015.1
20260906083552 78 133 1.7 2.6 0.00 0.00 0.00 87 1014.9
20260906083051 79 126 1.7 2.6 0.00 0.00 0.00 87 1014.8
20260906082547 79 132 1.7 3.5 0.00 0.00 0.00 87 1014.6
20260906082042 78 129 1.7 3.5 0.00 0.00 0.00 88 1015.0
20260906081537 78 125 0.0 1.7 0.00 0.00 0.00 88 1014.9
20260906081028 78 117 0.0 0.9 0.00 0.00 0.00 88 1014.7
20260906080524 79 136 1.7 1.7 0.00 0.00 0.00 87 1014.7
20260906080020 79 130 1.7 3.5 0.00 0.00 0.00 87 1014.6
20260906075520 79 142 1.7 1.7 0.00 0.00 0.00 87 1014.6
20260906075014 79 113 1.7 2.6 0.00 0.00 0.00 86 1014.6
20260906074509 79 130 0.9 3.5 0.00 0.00 0.00 86 1014.5
20260906074008 79 121 1.7 4.3 0.00 0.00 0.00 86 1014.5
20260906073503 79 145 0.9 1.7 0.00 0.00 0.00 87 1014.5
20260906072958 79 146 1.7 2.6 0.00 0.00 0.00 87 1014.5
20260906072454 79 122 2.6 4.3 0.00 0.00 0.00 86 1014.7
20260906071949 79 131 3.5 3.5 0.00 0.00 0.00 87 1014.6
20260906071446 79 127 1.7 5.2 0.00 0.00 0.00 87 1014.8
20260906070941 79 139 1.7 3.5 0.00 0.00 0.00 87 1014.8
20260906070437 79 138 1.7 3.5 0.00 0.00 0.00 87 1014.8
20260906065932 79 159 3.5 4.3 0.00 0.00 0.00 87 1014.8
20260906065427 79 138 3.5 3.5 0.00 0.00 0.00 87 1015.0
20260906064922 79 136 1.7 1.7 0.00 0.00 0.00 87 1014.9
20260906064418 80 131 1.7 3.5 0.00 0.00 0.00 87 1014.7
20260906063918 80 105 1.7 3.5 0.00 0.00 0.00 87 1014.8
20260906063414 80 93 0.9 3.5 0.00 0.00 0.00 87 1015.1
20260906062909 80 147 2.6 3.5 0.00 0.00 0.00 87 1014.9
20260906062409 80 35 1.7 2.6 0.00 0.00 0.00 87 1014.9
20260906061903 80 130 1.7 1.7 0.00 0.00 0.00 87 1015.0
20260906061359 80 110 0.9 3.5 0.00 0.00 0.00 87 1015.1
20260906060853 80 150 0.0 2.6 0.00 0.00 0.00 87 1015.0
20260906060351 80 62 1.7 3.5 0.00 0.00 0.00 87 1015.0
20260906055847 80 139 3.5 4.3 0.00 0.00 0.00 86 1015.0
20260906055343 80 134 3.5 3.5 0.00 0.00 0.00 86 1015.4
20260906054838 80 129 1.7 3.5 0.00 0.00 0.00 86 1015.0
20260906054332 80 145 2.6 3.5 0.00 0.00 0.00 86 1015.2
20260906053829 81 108 1.7 3.5 0.00 0.00 0.00 86 1015.0
20260906053324 81 154 1.7 3.5 0.00 0.00 0.00 86 1015.0
20260906052820 81 117 0.0 1.7 0.00 0.00 0.00 86 1015.1
20260906052316 81 112 0.9 2.6 0.00 0.00 0.00 87 1015.0
20260906051813 81 185 1.7 3.5 0.00 0.00 0.00 86 1014.8
20260906051312 81 103 0.9 2.6 0.00 0.00 0.00 87 1014.8
20260906050808 81 156 3.5 3.5 0.00 0.00 0.00 87 1014.9
20260906050303 81 120 1.7 4.3 0.00 0.00 0.00 86 1014.9
20260906045801 81 139 1.7 6.1 0.00 0.00 0.00 86 1014.9
20260906045256 81 128 1.7 1.7 0.00 0.00 0.00 87 1015.0
20260906044753 81 134 1.7 1.7 0.00 0.00 0.00 88 1015.0
20260906044247 81 25 0.0 0.9 0.00 0.00 0.00 88 1015.1
20260906043743 81 133 1.7 3.5 0.00 0.00 0.00 87 1014.8
20260906043239 81 141 0.0 2.6 0.00 0.00 0.00 87 1014.7
20260906042738 81 89 0.0 0.9 0.00 0.00 0.00 88 1015.0
20260906042237 81 142 1.7 1.7 0.00 0.00 0.00 87 1014.9
20260906041733 81 135 0.0 1.7 0.00 0.00 0.00 87 1014.9
20260906041228 82 132 0.9 2.6 0.00 0.00 0.00 87 1014.8
20260906040724 81 133 0.9 0.9 0.00 0.00 0.00 87 1014.9
20260906040219 81 130 0.0 0.9 0.00 0.00 0.00 88 1014.9
20260906035715 82 89 0.0 0.0 0.00 0.00 0.00 87 1015.1
20260906035210 82 220 0.9 1.7 0.00 0.00 0.00 87 1015.2
20260906034705 82 135 0.0 0.9 0.00 0.00 0.00 87 1014.9
20260906034200 82 89 0.0 0.9 0.00 0.00 0.00 86 1014.9
20260906033655 82 131 0.0 1.7 0.00 0.00 0.00 86 1014.8
20260906033156 82 134 1.7 1.7 0.00 0.00 0.00 86 1014.9
20260906032651 82 89 0.0 1.7 0.00 0.00 0.00 86 1015.0
20260906032146 82 142 0.0 1.7 0.00 0.00 0.00 86 1014.8
20260906031642 82 128 1.7 1.7 0.00 0.00 0.00 86 1015.0
20260906031137 82 212 0.0 0.9 0.00 0.00 0.00 86 1014.8
20260906030636 83 347 0.0 1.7 0.00 0.00 0.00 85 1014.8
20260906030132 83 49 1.7 1.7 0.00 0.00 0.00 85 1014.9
20260906025631 83 211 0.0 1.7 0.00 0.00 0.00 85 1014.5
20260906025130 83 143 0.9 1.7 0.00 0.00 0.00 84 1014.4
20260906024625 83 134 1.7 2.6 0.00 0.00 0.00 84 1014.4
20260906024119 83 15 0.0 2.6 0.00 0.00 0.00 84 1014.1
20260906023615 84 157 0.9 1.7 0.00 0.00 0.00 83 1014.2
20260906023109 84 75 0.0 1.7 0.00 0.00 0.00 83 1014.0
20260906022605 84 141 0.0 2.6 0.00 0.00 0.00 83 1013.7
20260906022100 84 66 0.0 2.6 0.00 0.00 0.00 83 1013.8
20260906021556 84 78 0.9 1.7 0.00 0.00 0.00 83 1013.6
20260906021054 84 127 0.0 1.7 0.00 0.00 0.00 83 1013.7
20260906020554 84 118 0.0 1.7 0.00 0.00 0.00 83 1013.5
20260906020054 84 176 0.0 0.9 0.00 0.00 0.00 83 1013.6
20260906015553 85 126 0.0 1.7 0.00 0.00 0.00 82 1013.4
20260906015053 84 122 0.0 0.9 0.00 0.00 0.00 82 1013.2
20260906014548 85 276 0.0 1.7 0.00 0.00 0.00 82 1013.0
20260906014044 85 76 0.0 1.7 0.00 0.00 0.00 81 1013.2
20260906013538 85 141 0.9 2.6 0.00 0.00 0.00 80 1013.2
20260906013034 85 175 0.9 2.6 0.00 0.00 0.00 80 1012.9
20260906012529 86 129 0.9 1.7 0.00 0.00 0.00 80 1012.9
20260906012028 85 35 0.9 0.9 0.00 0.00 0.00 80 1012.9
20260906011525 86 62 0.0 0.9 0.00 0.00 0.00 79 1013.0
20260906011025 86 75 0.0 0.9 0.00 0.00 0.00 79 1013.0
20260906010520 87 275 0.9 0.9 0.00 0.00 0.00 78 1012.9
20260906010017 87 66 0.0 1.7 0.00 0.00 0.00 77 1013.0
20260906005515 87 138 0.9 0.9 0.00 0.00 0.00 77 1012.9
20260906005015 88 242 0.0 0.9 0.00 0.00 0.00 75 1012.7
20260906004509 88 80 0.0 1.7 0.00 0.00 0.00 74 1012.8
20260906004004 89 89 0.0 0.9 0.00 0.00 0.00 73 1012.8
20260906003459 89 154 0.0 1.7 0.00 0.00 0.00 73 1012.7
20260906002955 90 156 1.7 2.6 0.00 0.00 0.00 71 1012.7
20260906002454 90 124 1.7 3.5 0.00 0.00 0.00 71 1012.6
20260906001949 91 142 0.9 3.5 0.00 0.00 0.00 70 1012.5
20260906001445 91 149 1.7 3.5 0.00 0.00 0.00 69 1012.4
20260906000934 91 182 1.7 5.2 0.00 0.00 0.00 70 1012.5
20260906000433 91 142 1.7 4.3 0.00 0.00 0.00 69 1012.5
20260905235924 92 135 3.5 4.3 0.00 0.00 0.00 67 1012.7
20260905235424 92 140 3.5 3.5 0.00 0.00 0.00 66 1012.9
20260905234920 93 130 2.6 2.6 0.00 0.00 0.00 65 1012.7
20260905234414 93 140 1.7 2.6 0.00 0.00 0.00 65 1012.9
20260905233909 92 102 0.0 0.9 0.00 0.00 0.00 67 1012.7
20260905233404 92 120 0.0 1.7 0.00 0.00 0.00 66 1012.8
20260905232903 92 120 1.7 1.7 0.00 0.00 0.00 66 1012.6
20260905232400 92 157 3.5 4.3 0.00 0.00 0.00 65 1012.4
20260905231855 93 163 3.5 7.8 0.00 0.00 0.00 64 1012.4
20260905231350 93 183 3.5 7.8 0.00 0.00 0.00 64 1012.3
20260905230847 94 146 5.2 11.3 0.00 0.00 0.00 62 1012.5
20260905230344 94 147 6.1 7.0 0.00 0.00 0.00 63 1012.2
20260905225843 94 177 2.6 9.6 0.00 0.00 0.00 62 1012.5
20260905225339 94 154 3.5 9.6 0.00 0.00 0.00 62 1012.5
20260905224834 95 157 2.6 5.2 0.00 0.00 0.00 61 1012.5
20260905224329 94 150 4.3 8.7 0.00 0.00 0.00 62 1012.5
20260905223824 94 153 1.7 3.5 0.00 0.00 0.00 63 1012.4
20260905223322 94 127 2.6 4.3 0.00 0.00 0.00 63 1012.5
20260905222816 94 178 2.6 4.3 0.00 0.00 0.00 63 1012.4
20260905222315 94 188 2.6 7.0 0.00 0.00 0.00 62 1012.4
20260905221811 94 142 1.7 7.0 0.00 0.00 0.00 62 1012.3
20260905221308 94 163 3.5 4.3 0.00 0.00 0.00 61 1012.5
20260905220803 94 119 3.5 5.2 0.00 0.00 0.00 62 1012.2
20260905220259 93 164 1.7 4.3 0.00 0.00 0.00 62 1012.5
20260905215758 94 135 2.6 3.5 0.00 0.00 0.00 61 1012.3
20260905215254 94 143 0.0 4.3 0.00 0.00 0.00 61 1012.5
20260905214750 94 147 1.7 3.5 0.00 0.00 0.00 60 1012.5
20260905214245 93 239 0.9 6.1 0.00 0.00 0.00 61 1012.4
20260905213741 93 324 1.7 3.5 0.00 0.00 0.00 62 1012.6
20260905213237 94 154 7.0 9.6 0.00 0.00 0.00 59 1012.5
20260905212732 93 31 1.7 5.2 0.00 0.00 0.00 61 1012.7
20260905212231 93 140 5.2 8.7 0.00 0.00 0.00 62 1012.9
20260905211730 93 283 1.7 4.3 0.00 0.00 0.00 62 1012.9
20260905211226 92 137 3.5 7.8 0.00 0.00 0.00 62 1012.8
20260905210723 92 130 0.0 9.6 0.00 0.00 0.00 62 1013.1
20260905210222 93 327 1.7 3.5 0.00 0.00 0.00 62 1013.2
20260905205721 92 168 2.6 5.2 0.00 0.00 0.00 62 1013.3
20260905205216 93 286 1.7 4.3 0.00 0.00 0.00 62 1013.5
20260905204710 92 19 5.2 5.2 0.00 0.00 0.00 61 1013.4
20260905204200 93 168 3.5 5.2 0.00 0.00 0.00 62 1013.5
20260905203700 93 146 1.7 4.3 0.00 0.00 0.00 62 1013.7
20260905203155 92 145 1.7 5.2 0.00 0.00 0.00 64 1013.6
20260905202651 92 63 0.0 7.8 0.00 0.00 0.00 63 1013.8
20260905202146 92 51 0.9 4.3 0.00 0.00 0.00 64 1014.0
20260905201642 92 104 1.7 4.3 0.00 0.00 0.00 63 1014.2
20260905201141 92 98 2.6 3.5 0.00 0.00 0.00 65 1014.2
20260905200632 92 183 5.2 5.2 0.00 0.00 0.00 64 1014.6
20260905200126 92 156 5.2 7.0 0.00 0.00 0.00 63 1014.4
20260905195620 92 357 1.7 3.5 0.00 0.00 0.00 64 1014.6
20260905195115 92 34 1.7 5.2 0.00 0.00 0.00 63 1014.6
20260905194614 91 148 1.7 6.1 0.00 0.00 0.00 65 1014.6
20260905194114 91 106 1.7 5.2 0.00 0.00 0.00 65 1014.8
20260905193608 92 109 2.6 6.1 0.00 0.00 0.00 64 1014.7
20260905193103 92 61 1.7 3.5 0.00 0.00 0.00 64 1014.8
20260905192559 91 142 0.0 7.0 0.00 0.00 0.00 65 1014.9
20260905192056 90 154 0.0 8.7 0.00 0.00 0.00 67 1015.1
20260905191554 91 83 2.6 5.2 0.00 0.00 0.00 66 1015.1
20260905191053 91 82 0.9 5.2 0.00 0.00 0.00 65 1015.2